Terminal Aerodrome Forecast
Issued by NWS

Home | Current Version | Previous Version | Graphics & Text | Print | Product List | Glossary On
Versions: 1 2 3 4 5 6 7 8 9 10 11 12 13 14 15
000
FTUS43 KMPX 250905 AAA
TAFRWF
TAF AMD
KRWF 250905Z 2509/2606 25012KT 6SM BR BKN008
     FM251000 27018G24KT P6SM SCT025
     FM251500 30024G34KT P6SM BKN025
     FM260100 31015G23KT P6SM SKC=

USA.gov is the U.S. government's official web portal to all federal, state and local government web resources and services.